Regional Weather Roundup
Issued by NWS

Home | Current Version | Previous Version | Text Only | Print | Product List | Glossary On
Versions: 1 2 3 4 5 6 7 8 9 10 11 12 13 14 15 16 17 18 19 20 21 22 23 24 25 26 27 28 29 30 31 32 33 34 35 36 37 38 39 40 41 42 43 44 45 46 47 48 49 50
000
ASUS45 KCYS 262110
RWRWY

WYOMING REGIONAL WEATHER ROUNDUP
NATIONAL WEATHER SERVICE CHEYENNE WY
300 PM MDT SAT MAY 26 2018

NOTE:  "FAIR" INDICATES FEW OR NO CLOUDS BELOW 12,000 FEET
WITH NO SIGNIFICANT WEATHER AND/OR OBSTRUCTIONS TO VISIBILITY.

WYZ001-262200-
YELLOWSTONE NATIONAL PARK

CITY           SKY/WX    TMP DP  RH WIND       PRES   REMARKS
LK YELLOWSTONE   N/A     62  31  31 VRB3      30.02F
W YELLOWSTONE  NOT AVBL

$$
WYZ002>013-054>058-071-098>099-262200-
NORTHERN WYOMING

CITY           SKY/WX    TMP DP  RH WIND       PRES   REMARKS
JACKSON        FAIR      73  36  25 W10       29.89F
CODY           FAIR      79  49  34 E12       29.82F
GREYBULL       FAIR      86  48  26 SE10      29.72F
WORLAND        FAIR      87  46  24 NE7       29.73F
SHERIDAN       FAIR      83  61  47 NW12      29.74F
BUFFALO        FAIR      81  52  36 N15       29.81S
GILLETTE       FAIR      91  29  11 SW18G28   29.76F
NEWCASTLE      FAIR      86  41  20 S8G17     29.82S

$$
WYZ014>020-022>026-101>103-262200-
CENTRAL WYOMING

CITY           SKY/WX    TMP DP  RH WIND       PRES   REMARKS
BIG PINEY      FAIR      76  24  14 W14G22    29.92F
PINEDALE       FAIR      73  19  13 S14G23    29.93S
DUBOIS         FAIR      68  34  28 E7        29.93F
LANDER         FAIR      83  37  19 S17G24    29.80F
RIVERTON       FAIR      83  31  15 SE9       29.81F
CASPER         FAIR      87  26  11 S8G17     29.83F
DOUGLAS        FAIR      87  42  20 SE8G18    29.83F

$$
WYZ021-027>030-104>119-262200-
SOUTHERN WYOMING

CITY           SKY/WX    TMP DP  RH WIND       PRES   REMARKS
EVANSTON       FAIR      72  28  19 VRB5      29.91F
FORT BRIDGER   FAIR      80  14   8 S18G28    29.92F
ROCK SPRINGS   FAIR      80  10   7 SW23G30   29.90F
DIXON          FAIR      84  13   7 S20G29    29.94F
RAWLINS        FAIR      83  13   7 S18G30    29.93F
SARATOGA       FAIR      82  18   9 S5G16     29.96F
LARAMIE        FAIR      83  24  11 S20G25    29.96F
CHEYENNE       FAIR      83  39  21 SE15      29.92F
TORRINGTON     FAIR      91  40  16 S10       29.78F
PINE BLUFFS    FAIR      86  45  23 E10       29.87F

$$



USA.gov is the U.S. government's official web portal to all federal, state and local government web resources and services.